Volver al catálogo

FENGYUN 1C DEB

ActivoSSO
NORAD 35122·DEBRIS·🇨🇳 China

Lanzado May 10, 1999 desde Taiyuan Satellite Launch Center

Loading…

Próximos Pases (próximas 24 horas)

TLE

ActualizadoSource: Space-Track

Época: Sep 14, 2026, 07:11 UTC

1 35122U 99025DLA 26257.29977209  .00000307  00000-0  18208-3 0  9997
2 35122  98.6590 272.4490 0026086  92.2998 268.1163 14.14400825677625

Sigue FENGYUN 1C DEB en tiempo real con AllMySat

Download on the App Store